Regional Weather Roundup
Issued by NWS

Home | Current Version | Previous Version | Graphics & Text | Print | Product List | Glossary On
Versions: 1 2 3 4 5 6 7 8 9 10 11 12 13 14 15 16 17 18 19 20 21 22 23 24 25 26 27 28 29 30 31 32 33 34 35 36 37 38 39 40 41 42 43 44 45 46 47 48 49 50
000
ASUS43 KBIS 260502
RWRND

NORTH DAKOTA REGIONAL WEATHER ROUNDUP
NATIONAL WEATHER SERVICE BISMARCK ND
1200 AM CDT WED APR 26 2017

NOTE: "FAIR" INDICATES FEW OR NO CLOUDS BELOW 12,000 FEET WITH NO
SIGNIFICANT WEATHER AND/OR OBSTRUCTIONS TO VISIBILITY.


NDZ001>003-009>011-017-260600-
NORTHWEST NORTH DAKOTA

CITY           SKY/WX    TMP DP  RH WIND       PRES   REMARKS
WILLISTON      CLOUDY    36  24  62 NE6       29.99S
MINOT          CLOUDY    33  26  75 N7        29.97S
MINOT AFB      CLOUDY    34  24  66 NE17      29.97S
$$

NDZ018>021-031>035-040>046-260600-
SOUTHWEST NORTH DAKOTA

CITY           SKY/WX    TMP DP  RH WIND       PRES   REMARKS
BISMARCK       CLOUDY    37  28  70 N10       29.92S
DICKINSON      CLOUDY    31  25  78 NW7       29.91F
GARRISON         N/A     33  25  72 NE7       29.95S
HETTINGER ARPT CLOUDY    31  25  78 NW9       29.92F
$$

NDZ004>008-012>016-024-026-027-054-260600-
NORTHEAST NORTH DAKOTA

CITY           SKY/WX    TMP DP  RH WIND       PRES   REMARKS
GRAND FORKS    CLOUDY    33  27  78 NE21G29   29.89F
GRND FRKS AFB  CLOUDY    32  26  78 NE16      29.90F
DEVILS LAKE    FAIR      32  26  78 NE13      29.92F
$$

NDZ022-023-025-028>030-036>039-047>053-260600-
SOUTHEAST NORTH DAKOTA

CITY           SKY/WX    TMP DP  RH WIND       PRES   REMARKS
FARGO          CLOUDY    33  28  81 N18G30    29.79F
JAMESTOWN      CLOUDY    32  27  81 NE22G28   29.83F WCI  19
$$




USA.gov is the U.S. government's official web portal to all federal, state and local government web resources and services.